| time (UTC) | temp F | wind direction | speed knots | gust knots | rain 1hr in | rain 24hr in | rain mn in | humidity % | barometer mb |
| 20260506183051 | 60 | 198 | 1.7 | 7.8 | 0.00 | 0.33 | 0.33 | 95 | 1008.4 |
| 20260506182549 | 60 | 159 | 1.7 | 8.7 | 0.00 | 0.33 | 0.33 | 96 | 1008.7 |
| 20260506182046 | 60 | 217 | 2.6 | 6.1 | 0.00 | 0.33 | 0.33 | 95 | 1008.5 |
| 20260506181544 | 60 | 192 | 2.6 | 7.0 | 0.00 | 0.33 | 0.33 | 96 | 1008.5 |
| 20260506181040 | 60 | 193 | 1.7 | 5.2 | 0.02 | 0.33 | 0.33 | 95 | 1008.7 |
| 20260506180537 | 60 | 186 | 1.7 | 5.2 | 0.02 | 0.33 | 0.33 | 95 | 1008.7 |
| 20260506180034 | 61 | 177 | 3.5 | 6.1 | 0.00 | 0.33 | 0.33 | 95 | 1008.7 |
| 20260506175530 | 61 | 245 | 1.7 | 3.5 | 0.00 | 0.33 | 0.33 | 95 | 1008.5 |
| 20260506175027 | 61 | 178 | 3.5 | 4.3 | 0.00 | 0.33 | 0.33 | 95 | 1008.6 |
| 20260506174526 | 61 | 208 | 4.3 | 6.1 | 0.00 | 0.33 | 0.33 | 94 | 1008.7 |
| 20260506174021 | 61 | 174 | 5.2 | 7.8 | 0.02 | 0.33 | 0.33 | 94 | 1008.8 |
| 20260506173519 | 61 | 252 | 1.7 | 4.3 | 0.00 | 0.32 | 0.32 | 94 | 1008.6 |
| 20260506173016 | 61 | 219 | 4.3 | 7.8 | 0.05 | 0.32 | 0.32 | 94 | 1008.6 |
| 20260506172514 | 61 | 206 | 2.6 | 9.6 | 0.02 | 0.32 | 0.32 | 94 | 1008.7 |
| 20260506172009 | 61 | 232 | 4.3 | 5.2 | 0.00 | 0.32 | 0.32 | 94 | 1008.9 |
| 20260506171507 | 61 | 185 | 3.5 | 3.5 | 0.00 | 0.32 | 0.32 | 94 | 1008.8 |
| 20260506171004 | 61 | 207 | 4.3 | 6.1 | 0.02 | 0.32 | 0.32 | 93 | 1008.9 |
| 20260506170501 | 61 | 151 | 0.9 | 7.8 | 0.05 | 0.32 | 0.32 | 93 | 1008.9 |
| 20260506165959 | 61 | 176 | 2.6 | 6.1 | 0.02 | 0.31 | 0.31 | 92 | 1009.0 |
| 20260506165458 | 61 | 238 | 3.5 | 10.4 | 0.02 | 0.31 | 0.31 | 91 | 1008.9 |
| 20260506164953 | 61 | 200 | 7.0 | 13.0 | 0.00 | 0.30 | 0.30 | 91 | 1009.0 |
| 20260506164450 | 61 | 242 | 5.2 | 6.1 | 0.00 | 0.30 | 0.30 | 91 | 1008.8 |
| 20260506163948 | 62 | 181 | 4.3 | 7.8 | 0.00 | 0.30 | 0.30 | 91 | 1008.9 |
| 20260506163443 | 62 | 207 | 9.6 | 11.3 | 0.02 | 0.30 | 0.30 | 92 | 1008.9 |
| 20260506162938 | 62 | 154 | 1.7 | 7.8 | 0.02 | 0.30 | 0.30 | 92 | 1008.9 |
| 20260506162436 | 62 | 172 | 1.7 | 9.6 | 0.02 | 0.30 | 0.30 | 92 | 1008.9 |
| 20260506161933 | 62 | 172 | 0.0 | 4.3 | 0.02 | 0.29 | 0.29 | 92 | 1008.8 |
| 20260506161431 | 62 | 166 | 1.7 | 3.5 | 0.02 | 0.29 | 0.29 | 92 | 1008.8 |
| 20260506160923 | 62 | 234 | 7.0 | 7.8 | 0.02 | 0.29 | 0.29 | 93 | 1008.8 |
| 20260506160420 | 62 | 181 | 6.1 | 6.1 | 0.07 | 0.29 | 0.29 | 93 | 1008.7 |
| 20260506155917 | 61 | 144 | 1.7 | 3.5 | 0.09 | 0.29 | 0.29 | 93 | 1008.9 |
| 20260506155414 | 61 | 227 | 5.2 | 5.2 | 0.12 | 0.28 | 0.28 | 92 | 1009.0 |
| 20260506153536 | 61 | 182 | 5.2 | 10.4 | 0.31 | 0.22 | 0.22 | 90 | 1010.0 |
| 20260506153033 | 62 | 199 | 9.6 | 12.2 | 0.31 | 0.19 | 0.19 | 90 | 1009.9 |
| 20260506152530 | 62 | 158 | 0.9 | 9.6 | 0.12 | 0.16 | 0.16 | 89 | 1010.2 |
| 20260506152029 | 62 | 197 | 5.2 | 5.2 | 0.02 | 0.14 | 0.14 | 89 | 1010.0 |
| 20260506151526 | 62 | 202 | 8.7 | 8.7 | 0.02 | 0.14 | 0.14 | 88 | 1010.2 |
| 20260506151023 | 63 | 139 | 5.2 | 13.0 | 0.02 | 0.14 | 0.14 | 88 | 1010.1 |
| 20260506150520 | 63 | 201 | 3.5 | 6.1 | 0.02 | 0.13 | 0.13 | 88 | 1009.7 |
| 20260506150017 | 63 | 195 | 5.2 | 10.4 | 0.02 | 0.13 | 0.13 | 88 | 1009.9 |
| 20260506145514 | 63 | 166 | 5.2 | 9.6 | 0.05 | 0.13 | 0.13 | 88 | 1009.6 |
| 20260506145011 | 63 | 215 | 3.5 | 5.2 | 0.05 | 0.13 | 0.13 | 88 | 1009.7 |
| 20260506144508 | 63 | 208 | 0.0 | 2.6 | 0.12 | 0.12 | 0.12 | 89 | 1009.8 |
| 20260506144005 | 63 | 192 | 1.7 | 3.5 | 0.14 | 0.11 | 0.11 | 88 | 1009.5 |
| 20260506143503 | 63 | 180 | 1.7 | 3.5 | 0.12 | 0.10 | 0.10 | 88 | 1009.7 |
| 20260506143001 | 63 | 150 | 0.0 | 5.2 | 0.14 | 0.09 | 0.09 | 87 | 1009.5 |
| 20260506142458 | 63 | 182 | 3.5 | 5.2 | 0.21 | 0.08 | 0.08 | 86 | 1009.9 |
| 20260506141956 | 63 | 198 | 3.5 | 6.1 | 0.17 | 0.07 | 0.07 | 84 | 1010.0 |
| 20260506141454 | 63 | 187 | 3.5 | 6.1 | 0.07 | 0.04 | 0.04 | 83 | 1010.0 |
| 20260506140952 | 64 | 201 | 2.6 | 6.1 | 0.05 | 0.04 | 0.04 | 83 | 1009.8 |
| 20260506140449 | 64 | 170 | 2.6 | 7.8 | 0.02 | 0.03 | 0.03 | 81 | 1009.8 |
| 20260506135945 | 64 | 199 | 5.2 | 8.7 | 0.02 | 0.03 | 0.03 | 81 | 1009.9 |
| 20260506135443 | 64 | 207 | 2.6 | 5.2 | 0.02 | 0.03 | 0.03 | 82 | 1009.8 |
| 20260506134938 | 64 | 203 | 4.3 | 6.1 | 0.02 | 0.03 | 0.03 | 82 | 1009.6 |
| 20260506134435 | 64 | 223 | 6.1 | 7.0 | 0.02 | 0.02 | 0.02 | 82 | 1009.9 |
| 20260506133932 | 64 | 187 | 4.3 | 7.8 | 0.05 | 0.02 | 0.02 | 82 | 1009.9 |
| 20260506133429 | 64 | 189 | 4.3 | 6.1 | 0.05 | 0.02 | 0.02 | 81 | 1009.9 |
| 20260506132926 | 64 | 218 | 4.3 | 10.4 | 0.02 | 0.02 | 0.02 | 79 | 1010.0 |
| 20260506132423 | 64 | 170 | 2.6 | 6.1 | 0.02 | 0.01 | 0.01 | 80 | 1010.0 |
| 20260506131920 | 64 | 208 | 3.5 | 6.1 | 0.02 | 0.01 | 0.01 | 79 | 1010.0 |
| 20260506131416 | 64 | 213 | 5.2 | 8.7 | 0.00 | 0.01 | 0.01 | 78 | 1010.1 |
| 20260506130914 | 64 | 181 | 2.6 | 7.0 | 0.02 | 0.01 | 0.01 | 78 | 1010.0 |
| 20260506130410 | 65 | 232 | 3.5 | 10.4 | 0.02 | 0.01 | 0.01 | 78 | 1010.2 |
| 20260506125909 | 65 | 188 | 7.0 | 8.7 | 0.02 | 0.00 | 0.00 | 78 | 1010.1 |
| 20260506125406 | 65 | 184 | 6.1 | 8.7 | 0.02 | 0.00 | 0.00 | 77 | 1010.2 |
| 20260506124904 | 66 | 206 | 3.5 | 9.6 | 0.00 | 0.00 | 0.00 | 74 | 1010.1 |
| 20260506124401 | 66 | 187 | 3.5 | 10.4 | 0.00 | 0.00 | 0.00 | 73 | 1010.0 |
| 20260506123859 | 66 | 180 | 3.5 | 9.6 | 0.00 | 0.00 | 0.00 | 71 | 1010.0 |
| 20260506123357 | 66 | 213 | 8.7 | 11.3 | 0.00 | 0.00 | 0.00 | 71 | 1009.9 |
| 20260506122854 | 66 | 224 | 8.7 | 11.3 | 0.00 | 0.00 | 0.00 | 70 | 1009.9 |
| 20260506122350 | 67 | 228 | 4.3 | 13.0 | 0.00 | 0.00 | 0.00 | 69 | 1009.6 |
| 20260506121849 | 67 | 191 | 4.3 | 7.8 | 0.00 | 0.00 | 0.00 | 69 | 1009.8 |
| 20260506121346 | 67 | 179 | 0.9 | 7.8 | 0.00 | 0.00 | 0.00 | 69 | 1009.8 |
| 20260506120843 | 67 | 235 | 2.6 | 6.1 | 0.00 | 0.00 | 0.00 | 69 | 1009.6 |
| 20260506120340 | 67 | 209 | 4.3 | 13.0 | 0.00 | 0.00 | 0.00 | 69 | 1009.7 |
| 20260506115837 | 67 | 186 | 2.6 | 7.8 | 0.00 | 0.00 | 0.00 | 69 | 1009.6 |
| 20260506115336 | 66 | 242 | 3.5 | 4.3 | 0.00 | 0.00 | 0.00 | 69 | 1009.7 |
| 20260506114834 | 66 | 192 | 4.3 | 4.3 | 0.00 | 0.00 | 0.00 | 69 | 1009.7 |
| 20260506114331 | 66 | 145 | 2.6 | 3.5 | 0.00 | 0.00 | 0.00 | 69 | 1009.6 |
| 20260506113830 | 66 | 191 | 4.3 | 7.8 | 0.00 | 0.00 | 0.00 | 69 | 1009.7 |
| 20260506113327 | 66 | 195 | 4.3 | 10.4 | 0.00 | 0.00 | 0.00 | 69 | 1009.8 |
| 20260506112823 | 66 | 185 | 2.6 | 9.6 | 0.00 | 0.00 | 0.00 | 69 | 1009.8 |
| 20260506112320 | 66 | 209 | 5.2 | 9.6 | 0.00 | 0.00 | 0.00 | 69 | 1009.6 |
| 20260506111818 | 66 | 206 | 6.1 | 14.8 | 0.00 | 0.00 | 0.00 | 69 | 1009.7 |
| 20260506111316 | 66 | 217 | 11.3 | 11.3 | 0.00 | 0.00 | 0.00 | 69 | 1009.7 |
| 20260506110813 | 66 | 217 | 5.2 | 9.6 | 0.00 | 0.00 | 0.00 | 69 | 1009.7 |
| 20260506110310 | 66 | 148 | 3.5 | 9.6 | 0.00 | 0.00 | 0.00 | 69 | 1009.7 |
| 20260506105806 | 66 | 190 | 8.7 | 8.7 | 0.00 | 0.00 | 0.00 | 70 | 1009.6 |
| 20260506105305 | 66 | 159 | 1.7 | 5.2 | 0.00 | 0.00 | 0.00 | 69 | 1009.4 |
| 20260506104801 | 66 | 196 | 4.3 | 10.4 | 0.00 | 0.00 | 0.00 | 69 | 1009.3 |
| 20260506104258 | 66 | 89 | 0.9 | 7.8 | 0.00 | 0.00 | 0.00 | 69 | 1009.0 |
| 20260506103756 | 66 | 178 | 4.3 | 6.1 | 0.00 | 0.00 | 0.00 | 70 | 1009.0 |
| 20260506103253 | 66 | 180 | 1.7 | 7.8 | 0.00 | 0.00 | 0.00 | 70 | 1009.0 |
| 20260506102750 | 66 | 202 | 0.9 | 5.2 | 0.00 | 0.00 | 0.00 | 70 | 1008.9 |
| 20260506102248 | 66 | 222 | 3.5 | 5.2 | 0.00 | 0.00 | 0.00 | 70 | 1009.2 |
| 20260506101745 | 66 | 113 | 0.9 | 5.2 | 0.00 | 0.00 | 0.00 | 70 | 1009.0 |
| 20260506101241 | 66 | 201 | 3.5 | 8.7 | 0.00 | 0.00 | 0.00 | 69 | 1009.2 |
| 20260506100740 | 66 | 190 | 2.6 | 6.1 | 0.00 | 0.00 | 0.00 | 69 | 1009.0 |
| 20260506100237 | 66 | 193 | 3.5 | 7.0 | 0.00 | 0.00 | 0.00 | 69 | 1009.0 |
| 20260506095736 | 66 | 197 | 4.3 | 5.2 | 0.00 | 0.00 | 0.00 | 69 | 1009.3 |
| 20260506095232 | 66 | 181 | 4.3 | 6.1 | 0.00 | 0.00 | 0.00 | 69 | 1009.4 |
| 20260506094729 | 66 | 203 | 4.3 | 7.8 | 0.00 | 0.00 | 0.00 | 68 | 1009.3 |
| 20260506094227 | 66 | 190 | 3.5 | 3.5 | 0.00 | 0.00 | 0.00 | 68 | 1009.2 |
| 20260506093726 | 66 | 168 | 3.5 | 8.7 | 0.00 | 0.00 | 0.00 | 68 | 1008.9 |
| 20260506093222 | 66 | 237 | 3.5 | 6.1 | 0.00 | 0.00 | 0.00 | 67 | 1009.2 |
| 20260506092720 | 66 | 195 | 3.5 | 8.7 | 0.00 | 0.00 | 0.00 | 67 | 1009.0 |
| 20260506092218 | 66 | 195 | 4.3 | 6.1 | 0.00 | 0.00 | 0.00 | 67 | 1009.2 |
| 20260506091715 | 66 | 227 | 2.6 | 7.8 | 0.00 | 0.00 | 0.00 | 66 | 1009.0 |
| 20260506091212 | 66 | 189 | 6.1 | 9.6 | 0.00 | 0.00 | 0.00 | 66 | 1009.4 |
| 20260506090710 | 67 | 209 | 1.7 | 4.3 | 0.00 | 0.00 | 0.00 | 65 | 1009.0 |
| 20260506090207 | 67 | 204 | 3.5 | 3.5 | 0.00 | 0.00 | 0.00 | 65 | 1009.2 |
| 20260506085704 | 67 | 147 | 1.7 | 7.0 | 0.00 | 0.00 | 0.00 | 64 | 1009.3 |
| 20260506085200 | 67 | 202 | 2.6 | 4.3 | 0.00 | 0.00 | 0.00 | 64 | 1009.2 |
| 20260506084656 | 67 | 181 | 1.7 | 5.2 | 0.00 | 0.00 | 0.00 | 64 | 1009.5 |
| 20260506084153 | 67 | 210 | 2.6 | 5.2 | 0.00 | 0.00 | 0.00 | 63 | 1009.4 |
| 20260506083650 | 67 | 144 | 0.0 | 9.6 | 0.00 | 0.00 | 0.00 | 63 | 1009.6 |
| 20260506083148 | 67 | 190 | 1.7 | 6.1 | 0.00 | 0.00 | 0.00 | 63 | 1009.5 |
| 20260506082645 | 67 | 199 | 0.9 | 1.7 | 0.00 | 0.00 | 0.00 | 63 | 1009.3 |
| 20260506082144 | 67 | 179 | 3.5 | 6.1 | 0.00 | 0.00 | 0.00 | 62 | 1009.3 |
| 20260506081643 | 67 | 210 | 2.6 | 7.0 | 0.00 | 0.00 | 0.00 | 62 | 1009.5 |
| 20260506081140 | 67 | 230 | 1.7 | 6.1 | 0.00 | 0.00 | 0.00 | 61 | 1009.5 |
| 20260506080638 | 67 | 223 | 1.7 | 5.2 | 0.00 | 0.00 | 0.00 | 61 | 1009.4 |
| 20260506080134 | 67 | 215 | 2.6 | 8.7 | 0.00 | 0.00 | 0.00 | 61 | 1009.4 |
| 20260506073118 | 68 | 255 | 1.7 | 5.2 | 0.00 | 0.00 | 0.00 | 59 | 1009.5 |
| 20260506072615 | 68 | 184 | 6.1 | 6.1 | 0.00 | 0.00 | 0.00 | 58 | 1009.5 |
| 20260506072113 | 68 | 213 | 1.7 | 6.1 | 0.00 | 0.00 | 0.00 | 58 | 1009.6 |
| 20260506071610 | 68 | 245 | 4.3 | 6.1 | 0.00 | 0.00 | 0.00 | 58 | 1009.3 |
| 20260506071108 | 68 | 194 | 4.3 | 7.8 | 0.00 | 0.00 | 0.00 | 57 | 1009.4 |
| 20260506070605 | 68 | 224 | 4.3 | 7.8 | 0.00 | 0.00 | 0.00 | 57 | 1009.6 |
| 20260506062039 | 68 | 219 | 0.0 | 5.2 | 0.00 | 0.00 | 0.00 | 56 | 1009.8 |
| 20260506061534 | 68 | 207 | 5.2 | 7.8 | 0.00 | 0.00 | 0.00 | 55 | 1009.7 |
| 20260506061032 | 69 | 176 | 1.7 | 6.1 | 0.00 | 0.00 | 0.00 | 55 | 1010.0 |
| 20260506060531 | 69 | 195 | 4.3 | 8.7 | 0.00 | 0.00 | 0.00 | 55 | 1010.1 |
| 20260506050959 | 69 | 193 | 1.7 | 7.8 | 0.00 | 0.00 | 0.00 | 53 | 1010.3 |
| 20260506050457 | 69 | 186 | 2.6 | 7.0 | 0.00 | 0.00 | 0.00 | 53 | 1010.2 |
| 20260506044948 | 69 | 177 | 2.6 | 5.2 | 0.00 | 0.00 | 0.00 | 52 | 1010.5 |
| 20260506044446 | 69 | 56 | 0.0 | 7.8 | 0.00 | 0.00 | 0.00 | 52 | 1010.4 |
| 20260506043942 | 69 | 212 | 2.6 | 6.1 | 0.00 | 0.00 | 0.00 | 52 | 1010.6 |
| 20260506043440 | 69 | 180 | 2.6 | 5.2 | 0.00 | 0.00 | 0.00 | 52 | 1010.4 |
| 20260506042937 | 69 | 76 | 0.9 | 5.2 | 0.00 | 0.00 | 0.00 | 51 | 1010.4 |
| 20260506042437 | 69 | 250 | 2.6 | 4.3 | 0.00 | 0.00 | 0.00 | 51 | 1010.5 |
| 20260506041934 | 70 | 229 | 3.5 | 4.3 | 0.00 | 0.00 | 0.00 | 51 | 1010.6 |
| 20260506041432 | 70 | 222 | 4.3 | 4.3 | 0.00 | 0.00 | 0.00 | 50 | 1010.5 |
| 20260506040929 | 70 | 245 | 2.6 | 6.1 | 0.00 | 0.00 | 0.00 | 50 | 1010.3 |
| 20260506040426 | 70 | 168 | 2.6 | 7.0 | 0.00 | 0.00 | 0.00 | 50 | 1010.4 |
| 20260506035922 | 70 | 196 | 2.6 | 8.7 | 0.00 | 0.08 | 0.08 | 49 | 1010.4 |
| 20260506035420 | 70 | 60 | 0.9 | 4.3 | 0.00 | 0.08 | 0.08 | 50 | 1010.3 |
| 20260506034917 | 71 | 101 | 0.0 | 5.2 | 0.00 | 0.08 | 0.08 | 49 | 1010.4 |
| 20260506034414 | 71 | 28 | 0.9 | 4.3 | 0.00 | 0.08 | 0.08 | 48 | 1010.4 |
| 20260506033911 | 71 | 235 | 6.1 | 7.8 | 0.00 | 0.08 | 0.08 | 48 | 1010.3 |
| 20260506033408 | 71 | 236 | 5.2 | 13.0 | 0.00 | 0.08 | 0.08 | 47 | 1010.5 |
| 20260506032904 | 71 | 180 | 3.5 | 5.2 | 0.00 | 0.08 | 0.08 | 47 | 1010.1 |
| 20260506032402 | 71 | 175 | 3.5 | 8.7 | 0.00 | 0.08 | 0.08 | 47 | 1010.3 |
| 20260506031858 | 71 | 204 | 7.0 | 8.7 | 0.00 | 0.08 | 0.08 | 47 | 1010.2 |
| 20260506031356 | 72 | 124 | 0.9 | 4.3 | 0.00 | 0.08 | 0.08 | 46 | 1010.3 |
| 20260506030853 | 72 | 268 | 3.5 | 5.2 | 0.00 | 0.08 | 0.08 | 46 | 1010.3 |
| 20260506030351 | 72 | 191 | 2.6 | 7.8 | 0.00 | 0.08 | 0.08 | 46 | 1010.3 |
| 20260506025848 | 72 | 152 | 0.9 | 5.2 | 0.00 | 0.08 | 0.08 | 45 | 1010.3 |
| 20260506025345 | 72 | 181 | 3.5 | 9.6 | 0.00 | 0.08 | 0.08 | 45 | 1010.2 |
| 20260506024842 | 72 | 177 | 3.5 | 3.5 | 0.00 | 0.08 | 0.08 | 45 | 1010.3 |
| 20260506024338 | 72 | 122 | 3.5 | 6.1 | 0.00 | 0.08 | 0.08 | 44 | 1010.3 |
| 20260506023834 | 73 | 136 | 2.6 | 8.7 | 0.00 | 0.08 | 0.08 | 44 | 1010.2 |
| 20260506023331 | 73 | 169 | 2.6 | 4.3 | 0.00 | 0.08 | 0.08 | 44 | 1010.2 |
| 20260506022828 | 73 | 286 | 0.9 | 9.6 | 0.00 | 0.08 | 0.08 | 43 | 1010.1 |
| 20260506022326 | 73 | 199 | 4.3 | 7.0 | 0.00 | 0.08 | 0.08 | 43 | 1010.2 |
| 20260506021824 | 73 | 189 | 3.5 | 11.3 | 0.00 | 0.08 | 0.08 | 43 | 1010.1 |
| 20260506021320 | 73 | 66 | 2.6 | 7.0 | 0.00 | 0.08 | 0.08 | 42 | 1010.4 |
| 20260506020817 | 74 | 174 | 6.1 | 8.7 | 0.00 | 0.08 | 0.08 | 42 | 1010.3 |
| 20260506020315 | 74 | 212 | 3.5 | 7.0 | 0.00 | 0.08 | 0.08 | 41 | 1010.1 |
| 20260506015812 | 74 | 152 | 3.5 | 10.4 | 0.00 | 0.08 | 0.08 | 41 | 1010.2 |
| 20260506015310 | 74 | 129 | 1.7 | 7.0 | 0.00 | 0.08 | 0.08 | 41 | 1009.9 |
| 20260506014806 | 74 | 162 | 1.7 | 7.8 | 0.00 | 0.08 | 0.08 | 40 | 1010.2 |
| 20260506014303 | 75 | 167 | 1.7 | 7.8 | 0.00 | 0.08 | 0.08 | 40 | 1010.2 |
| 20260506013800 | 75 | 183 | 7.0 | 11.3 | 0.00 | 0.08 | 0.08 | 40 | 1010.0 |
| 20260506013257 | 75 | 114 | 2.6 | 7.8 | 0.00 | 0.08 | 0.08 | 39 | 1010.1 |
| 20260506012754 | 75 | 226 | 1.7 | 5.2 | 0.00 | 0.08 | 0.08 | 39 | 1010.0 |
| 20260506012250 | 75 | 215 | 5.2 | 5.2 | 0.00 | 0.08 | 0.08 | 39 | 1009.8 |
| 20260506011748 | 75 | 187 | 6.1 | 7.8 | 0.00 | 0.08 | 0.08 | 38 | 1009.8 |
| 20260506011244 | 75 | 220 | 3.5 | 12.2 | 0.00 | 0.08 | 0.08 | 38 | 1009.7 |
| 20260506010742 | 76 | 253 | 3.5 | 11.3 | 0.00 | 0.08 | 0.08 | 38 | 1009.7 |
| 20260506010239 | 76 | 177 | 4.3 | 16.5 | 0.00 | 0.08 | 0.08 | 38 | 1009.5 |
| 20260506005737 | 76 | 173 | 1.7 | 8.7 | 0.00 | 0.08 | 0.08 | 38 | 1009.5 |
| 20260506005233 | 76 | 218 | 10.4 | 14.8 | 0.00 | 0.08 | 0.08 | 37 | 1009.4 |
| 20260506004729 | 76 | 188 | 4.3 | 11.3 | 0.00 | 0.08 | 0.08 | 38 | 1009.4 |
| 20260506004227 | 76 | 188 | 5.2 | 10.4 | 0.00 | 0.08 | 0.08 | 37 | 1009.3 |
| 20260506003723 | 76 | 206 | 7.8 | 10.4 | 0.00 | 0.08 | 0.08 | 37 | 1009.6 |
| 20260506003219 | 76 | 191 | 2.6 | 14.8 | 0.00 | 0.08 | 0.08 | 37 | 1009.4 |
| 20260506002715 | 76 | 228 | 2.6 | 5.2 | 0.00 | 0.08 | 0.08 | 38 | 1009.3 |
| 20260506002212 | 76 | 207 | 0.9 | 10.4 | 0.00 | 0.08 | 0.08 | 38 | 1009.2 |
| 20260506001708 | 76 | 269 | 1.7 | 10.4 | 0.00 | 0.08 | 0.08 | 38 | 1008.9 |
| 20260506001205 | 77 | 186 | 2.6 | 7.0 | 0.00 | 0.08 | 0.08 | 38 | 1008.8 |
| 20260506000702 | 77 | 215 | 7.0 | 9.6 | 0.00 | 0.08 | 0.08 | 37 | 1008.9 |
| 20260506000159 | 77 | 212 | 7.8 | 7.8 | 0.00 | 0.08 | 0.08 | 37 | 1008.9 |
| 20260505235657 | 77 | 177 | 3.5 | 11.3 | 0.00 | 0.08 | 0.08 | 37 | 1008.8 |
| 20260505235154 | 77 | 185 | 2.6 | 9.6 | 0.00 | 0.08 | 0.08 | 36 | 1008.9 |
| 20260505234651 | 78 | 164 | 3.5 | 10.4 | 0.00 | 0.08 | 0.08 | 36 | 1008.8 |
| 20260505234148 | 78 | 188 | 7.0 | 15.6 | 0.00 | 0.08 | 0.08 | 36 | 1008.7 |
| 20260505233645 | 78 | 169 | 5.2 | 15.6 | 0.00 | 0.08 | 0.08 | 36 | 1008.8 |
| 20260505233142 | 78 | 180 | 6.1 | 8.7 | 0.00 | 0.08 | 0.08 | 36 | 1008.8 |
| 20260505232640 | 78 | 193 | 5.2 | 10.4 | 0.00 | 0.08 | 0.08 | 36 | 1008.8 |
| 20260505232137 | 78 | 156 | 1.7 | 8.7 | 0.00 | 0.08 | 0.08 | 35 | 1008.5 |
| 20260505231634 | 79 | 224 | 3.5 | 7.0 | 0.00 | 0.08 | 0.08 | 35 | 1008.6 |
| 20260505231133 | 79 | 213 | 6.1 | 12.2 | 0.00 | 0.08 | 0.08 | 35 | 1008.5 |
| 20260505230630 | 79 | 154 | 4.3 | 13.9 | 0.00 | 0.08 | 0.08 | 34 | 1008.6 |
| 20260505230126 | 79 | 231 | 5.2 | 11.3 | 0.00 | 0.08 | 0.08 | 34 | 1008.4 |
| 20260505225623 | 79 | 174 | 5.2 | 14.8 | 0.00 | 0.08 | 0.08 | 34 | 1008.6 |
| 20260505225119 | 79 | 219 | 12.2 | 16.5 | 0.00 | 0.08 | 0.08 | 34 | 1008.3 |
| 20260505224616 | 80 | 224 | 10.4 | 13.0 | 0.00 | 0.08 | 0.08 | 34 | 1008.5 |
| 20260505224113 | 80 | 197 | 7.8 | 11.3 | 0.00 | 0.08 | 0.08 | 34 | 1008.4 |
| 20260505223610 | 81 | 249 | 6.1 | 13.0 | 0.00 | 0.08 | 0.08 | 33 | 1008.4 |
| 20260505223107 | 81 | 217 | 1.7 | 9.6 | 0.00 | 0.08 | 0.08 | 34 | 1008.4 |
| 20260505222603 | 81 | 197 | 1.7 | 8.7 | 0.00 | 0.08 | 0.08 | 33 | 1008.5 |
| 20260505222059 | 82 | 196 | 5.2 | 17.4 | 0.00 | 0.08 | 0.08 | 32 | 1008.4 |
| 20260505221556 | 82 | 198 | 3.5 | 16.5 | 0.00 | 0.08 | 0.08 | 32 | 1008.2 |
| 20260505221053 | 82 | 215 | 7.0 | 12.2 | 0.00 | 0.08 | 0.08 | 31 | 1008.3 |
| 20260505220550 | 81 | 216 | 7.0 | 14.8 | 0.00 | 0.08 | 0.08 | 31 | 1008.2 |
| 20260505220048 | 81 | 194 | 3.5 | 12.2 | 0.00 | 0.08 | 0.08 | 32 | 1008.0 |
| 20260505215546 | 82 | 202 | 7.0 | 8.7 | 0.00 | 0.08 | 0.08 | 33 | 1008.0 |
| 20260505215043 | 82 | 214 | 1.7 | 12.2 | 0.00 | 0.08 | 0.08 | 33 | 1008.1 |
| 20260505214541 | 82 | 197 | 5.2 | 8.7 | 0.00 | 0.08 | 0.08 | 34 | 1008.2 |
| 20260505214038 | 82 | 196 | 7.0 | 13.9 | 0.00 | 0.08 | 0.08 | 32 | 1008.4 |
| 20260505213536 | 82 | 200 | 4.3 | 15.6 | 0.00 | 0.08 | 0.08 | 33 | 1008.3 |
| 20260505213031 | 82 | 197 | 13.0 | 13.0 | 0.00 | 0.08 | 0.08 | 33 | 1008.2 |
| 20260505212528 | 82 | 180 | 3.5 | 13.0 | 0.00 | 0.08 | 0.08 | 33 | 1008.1 |
| 20260505212026 | 82 | 187 | 4.3 | 9.6 | 0.00 | 0.08 | 0.08 | 32 | 1008.1 |
| 20260505211523 | 82 | 212 | 11.3 | 14.8 | 0.00 | 0.08 | 0.08 | 32 | 1008.0 |
| 20260505211019 | 82 | 176 | 5.2 | 13.0 | 0.00 | 0.08 | 0.08 | 32 | 1008.2 |
| 20260505210516 | 83 | 238 | 6.1 | 12.2 | 0.00 | 0.08 | 0.08 | 31 | 1008.2 |
| 20260505210013 | 83 | 206 | 3.5 | 13.0 | 0.00 | 0.08 | 0.08 | 30 | 1008.2 |
| 20260505205511 | 83 | 210 | 7.8 | 11.3 | 0.00 | 0.08 | 0.08 | 31 | 1008.1 |
| 20260505205008 | 83 | 195 | 7.0 | 10.4 | 0.00 | 0.08 | 0.08 | 31 | 1008.2 |
| 20260505204506 | 83 | 180 | 6.1 | 19.1 | 0.00 | 0.08 | 0.08 | 30 | 1008.0 |
| 20260505204003 | 83 | 223 | 9.6 | 15.6 | 0.00 | 0.08 | 0.08 | 30 | 1008.0 |
| 20260505203459 | 83 | 192 | 7.0 | 15.6 | 0.00 | 0.08 | 0.08 | 31 | 1008.1 |
| 20260505202955 | 83 | 197 | 8.7 | 10.4 | 0.00 | 0.08 | 0.08 | 31 | 1008.0 |
| 20260505202452 | 83 | 201 | 6.1 | 13.9 | 0.00 | 0.08 | 0.08 | 31 | 1008.0 |
| 20260505201948 | 83 | 190 | 7.0 | 11.3 | 0.00 | 0.08 | 0.08 | 31 | 1007.8 |
| 20260505201445 | 82 | 225 | 4.3 | 9.6 | 0.00 | 0.08 | 0.08 | 32 | 1008.1 |
| 20260505200943 | 82 | 211 | 10.4 | 18.2 | 0.00 | 0.08 | 0.08 | 31 | 1008.1 |
| 20260505200441 | 82 | 199 | 7.0 | 9.6 | 0.00 | 0.08 | 0.08 | 32 | 1008.3 |
| 20260505195936 | 83 | 197 | 11.3 | 14.8 | 0.00 | 0.08 | 0.08 | 31 | 1008.2 |
| 20260505195433 | 82 | 201 | 4.3 | 13.0 | 0.00 | 0.08 | 0.08 | 32 | 1008.3 |
| 20260505194931 | 83 | 184 | 5.2 | 13.0 | 0.00 | 0.08 | 0.08 | 32 | 1008.4 |
| 20260505194428 | 83 | 231 | 9.6 | 13.0 | 0.00 | 0.08 | 0.08 | 33 | 1008.1 |
| 20260505193928 | 84 | 188 | 5.2 | 9.6 | 0.00 | 0.08 | 0.08 | 32 | 1008.2 |
| 20260505193426 | 84 | 225 | 6.1 | 17.4 | 0.00 | 0.08 | 0.08 | 32 | 1008.4 |
| 20260505192924 | 85 | 214 | 7.8 | 16.5 | 0.00 | 0.08 | 0.08 | 31 | 1008.4 |
| 20260505192421 | 83 | 174 | 1.7 | 8.7 | 0.00 | 0.08 | 0.08 | 34 | 1008.4 |
| 20260505191919 | 84 | 149 | 6.1 | 7.8 | 0.00 | 0.08 | 0.08 | 35 | 1008.6 |
| 20260505191417 | 83 | 227 | 4.3 | 7.8 | 0.00 | 0.08 | 0.08 | 33 | 1008.2 |
| 20260505190914 | 83 | 205 | 3.5 | 13.0 | 0.00 | 0.08 | 0.08 | 33 | 1008.5 |
| 20260505190409 | 84 | 208 | 11.3 | 17.4 | 0.00 | 0.08 | 0.08 | 30 | 1008.4 |
| 20260505185904 | 84 | 208 | 3.5 | 7.8 | 0.00 | 0.08 | 0.08 | 32 | 1008.7 |
| 20260505185402 | 84 | 204 | 2.6 | 9.6 | 0.00 | 0.08 | 0.08 | 31 | 1008.8 |
| 20260505184858 | 83 | 219 | 7.0 | 13.0 | 0.00 | 0.08 | 0.08 | 31 | 1008.8 |
| 20260505184355 | 83 | 212 | 3.5 | 13.0 | 0.00 | 0.08 | 0.08 | 30 | 1008.9 |
| 20260505183852 | 83 | 198 | 8.7 | 13.0 | 0.00 | 0.08 | 0.08 | 29 | 1008.6 |
| 20260505183349 | 83 | 204 | 4.3 | 11.3 | 0.00 | 0.08 | 0.08 | 31 | 1009.0 |